Wind_Speed
31 31 30 29 28 27 26 24 22 20 18 18 17 16 16 15 15 15 14 15 15 15 14 13 13 13 13 13 13 13 14 13 13 13 13 13 13 13 13 13 14 14 15 15
30 30 29 29 29 28 27 25 23 21 20 18 17 16 16 15 15 15 15 16 16 15 14 15 15 15 15 14 14 14 15 15 15 15 15 15 15 15 15 15 15 16 17 18
29 29 30 30 29 28 27 25 24 22 21 20 18 17 16 16 16 16 16 17 17 16 16 16 16 16 16 15 15 15 16 16 16 16 16 16 17 17 17 17 17 18 18 19
29 30 29 29 28 27 26 26 25 24 23 21 20 19 17 17 17 17 17 17 17 18 18 18 17 16 16 17 16 17 17 17 17 17 17 17 18 18 18 18 19 19 20 20
30 28 29 30 28 26 26 26 25 25 24 23 21 20 19 18 19 19 18 18 18 18 18 18 18 18 19 18 19 19 19 18 18 18 18 18 19 19 20 20 20 21 21 22
32 29 27 30 28 26 26 27 26 25 25 24 23 22 21 20 20 20 19 19 19 20 20 19 19 20 20 20 21 21 21 20 19 19 20 20 20 21 21 21 21 22 23 24
32 31 29 32 28 26 27 27 26 25 25 25 24 24 22 21 21 21 21 21 21 21 21 21 21 21 22 22 22 22 22 21 21 21 21 22 22 22 22 23 23 23 24 24
34 32 33 32 29 29 28 28 27 26 26 25 24 24 23 23 23 23 22 22 22 22 23 23 23 23 24 24 24 23 23 22 23 22 22 22 22 23 23 24 25 25 25 25
36 36 35 32 30 29 28 28 28 28 27 27 26 25 24 25 25 25 24 23 24 24 24 25 25 25 25 25 25 25 24 23 23 23 23 23 24 24 25 26 25 25 25 26
37 37 35 33 32 31 30 29 29 29 28 28 27 26 26 25 25 25 26 26 26 26 26 26 27 27 27 26 26 26 24 24 23 23 23 24 25 25 25 26 26 27 27 27
37 36 36 35 34 33 32 31 30 29 29 28 28 27 27 26 26 27 27 28 28 28 28 28 28 27 27 27 26 25 24 24 23 23 23 24 24 25 26 26 26 26 26 26
38 36 35 35 34 33 33 32 31 30 30 29 28 28 28 27 27 27 27 28 29 28 28 28 28 27 27 27 27 26 25 24 24 24 25 25 25 26 26 26 26 26 26 26
38 37 36 35 34 34 33 33 32 31 30 29 28 28 28 28 27 27 27 28 28 29 28 29 28 28 28 27 27 26 25 25 26 26 25 25 26 25 26 26 26 25 26 26
38 37 36 35 35 34 34 33 33 31 30 29 29 28 28 28 28 28 29 29 29 29 28 28 29 28 27 27 27 26 26 25 26 25 25 25 25 26 25 25 25 25 25 25
37 37 36 36 35 35 34 33 32 31 30 30 29 29 28 28 28 29 29 29 29 29 28 28 28 27 26 26 26 25 25 25 25 24 25 26 25 25 25 25 25 26 25 25
34 35 35 35 35 35 35 34 32 31 31 31 30 30 29 29 28 29 29 28 28 28 28 28 27 26 26 26 25 25 24 24 23 24 25 25 25 25 25 25 24 25 25 25
32 33 33 33 34 34 34 35 34 33 32 32 31 30 29 29 28 29 29 29 28 27 27 27 26 25 25 25 25 24 24 24 24 24 23 23 24 23 23 23 24 24 25 25
31 31 31 31 32 32 32 32 32 31 30 30 30 29 29 28 28 28 28 28 27 27 27 26 25 24 24 24 24 24 24 24 23 22 22 23 22 22 23 23 23 24 24 25
29 30 30 30 31 31 31 31 30 30 30 30 29 29 29 28 28 28 27 27 27 26 26 25 25 24 24 23 23 23 23 23 22 22 21 21 21 22 22 22 23 24 24 24
29 30 29 29 29 29 29 29 29 29 29 30 29 28 28 27 27 27 26 26 26 25 25 25 24 24 24 23 23 23 22 22 22 21 21 21 21 22 22 22 23 24 24 24
28 29 29 28 28 28 28 28 28 29 28 28 28 28 27 26 26 26 25 25 25 25 24 23 23 22 22 22 22 22 21 21 21 21 21 20 21 21 22 22 23 23 23 23
26 26 27 27 27 27 27 27 27 27 27 27 27 27 26 25 25 24 24 24 24 24 23 22 22 22 21 21 21 21 21 20 20 19 19 20 21 21 21 22 23 23 23 23
23 24 25 25 26 26 26 26 25 25 25 24 25 25 25 24 23 23 22 22 22 21 20 19 19 20 20 20 19 19 19 18 18 19 20 20 21 21 22 22 22 22 22 23
21 21 22 22 23 23 23 23 23 23 23 24 24 23 23 22 22 21 21 21 20 19 18 18 18 18 18 18 17 17 17 17 18 19 20 20 21 22 22 22 22 22 23 23
20 20 20 21 22 22 22 22 22 22 22 21 21 21 21 21 21 20 20 19 18 17 17 17 17 17 16 16 16 16 16 17 18 19 20 21 21 21 21 21 22 22 23 23
19 19 19 20 20 20 20 20 19 20 20 21 20 19 18 17 17 17 17 17 17 17 16 16 16 15 15 15 15 15 16 17 17 18 19 20 20 20 21 21 21 22 23 24
17 18 18 18 18 18 18 18 18 17 17 17 17 17 17 16 16 16 15 15 15 15 15 14 14 14 14 15 15 15 16 17 18 19 19 20 20 20 21 21 22 23 24 25
Wind_Direction
231 236 240 240 240 240 242 243 245 249 249 251 255 257 258 259 260 264 269 273 282 286 289 295 298 300 302 302 302 298 295 295 296 295 291 289 291 293 294 295 295 290 285 285
232 234 237 238 238 240 242 244 244 245 248 249 251 253 255 255 256 261 265 271 279 282 283 289 294 298 300 300 300 297 293 292 294 294 292 289 289 290 290 289 289 290 287 285
231 232 235 237 238 240 243 244 243 243 245 247 248 250 253 252 254 260 265 269 274 279 283 287 292 295 298 299 298 296 293 291 289 290 290 288 287 288 288 288 288 289 289 288
228 230 232 235 236 238 240 241 241 241 243 245 246 248 251 252 253 258 261 264 270 276 280 286 291 292 295 298 296 297 294 291 290 287 286 287 289 287 286 286 287 289 290 291
227 230 233 234 234 235 236 238 239 240 241 244 245 247 250 252 251 253 258 262 267 274 279 284 289 292 294 295 296 294 292 289 289 286 284 285 286 288 286 286 286 287 289 291
227 225 231 236 232 232 234 237 238 240 242 243 245 246 247 249 249 252 255 262 267 273 278 282 287 291 291 293 295 294 293 288 288 286 285 284 285 287 287 288 288 287 288 289
228 228 230 233 230 230 232 236 237 239 241 242 244 246 247 248 249 252 256 261 266 271 275 279 283 288 290 292 292 292 294 291 289 286 286 286 285 286 288 288 289 289 289 290
229 230 233 233 231 232 234 236 238 239 241 242 243 246 247 248 250 252 257 260 264 269 274 278 281 285 289 289 290 291 291 290 288 286 286 285 286 287 288 289 290 289 289 291
229 231 234 235 234 234 235 237 238 240 241 243 244 245 247 249 251 253 256 258 263 268 271 276 278 282 288 287 287 288 287 287 286 285 286 286 286 287 287 288 288 289 289 291
231 233 235 236 236 236 237 238 239 240 242 243 244 247 249 250 250 252 255 258 262 266 270 274 278 280 284 285 285 287 285 284 284 285 286 288 287 287 289 289 288 289 291 291
231 233 234 235 236 238 239 239 240 242 242 244 245 246 248 250 251 252 255 258 261 266 269 273 276 280 283 284 284 283 283 281 282 283 286 288 289 289 290 290 290 290 292 294
231 232 234 235 236 238 240 241 241 242 243 245 246 248 249 250 253 254 255 257 261 265 268 271 275 278 281 282 282 281 280 280 281 284 285 287 289 290 291 291 291 292 293 295
232 233 234 235 236 237 239 240 241 242 243 245 247 249 249 251 252 253 254 256 259 263 267 271 274 277 279 280 279 278 278 279 281 283 285 287 289 290 291 291 292 293 295 296
233 233 234 234 235 236 238 239 240 241 242 245 247 249 251 251 253 254 255 257 259 262 267 271 274 277 277 278 278 276 277 280 281 282 284 287 289 290 290 291 292 293 295 296
233 233 233 234 235 235 235 236 237 239 241 243 245 248 250 251 253 253 254 256 258 261 265 270 273 273 274 275 276 277 277 279 281 283 285 286 288 289 290 292 292 294 295 296
231 232 233 233 234 233 234 234 236 238 239 240 243 246 249 251 252 253 254 255 257 260 264 269 270 270 272 274 274 275 278 280 283 284 284 285 287 289 290 291 293 295 296 296
228 229 230 231 232 234 235 235 237 238 240 241 243 246 249 250 251 251 253 255 257 261 263 267 268 268 270 272 272 274 278 281 284 286 286 287 288 290 291 293 296 297 298 298
227 227 228 229 230 231 233 235 236 238 239 240 242 245 247 247 249 251 253 254 256 260 261 263 263 266 270 273 274 277 280 283 284 286 288 289 289 291 293 295 296 299 300 301
224 225 226 227 228 229 230 233 235 236 239 240 242 243 244 246 248 251 253 254 255 257 259 261 263 266 270 272 274 278 281 283 284 287 287 288 290 293 294 295 296 298 300 301
222 222 222 224 225 226 227 229 232 235 237 238 240 241 243 246 248 249 251 253 254 255 257 260 262 265 268 271 274 276 278 279 282 285 287 287 290 293 294 296 298 299 300 300
220 220 220 222 223 224 226 229 230 231 234 236 238 239 242 244 245 247 250 252 252 252 256 259 261 265 267 270 273 276 278 280 283 285 287 287 289 293 295 297 299 300 300 301
216 216 217 219 221 222 224 226 227 230 232 233 234 237 239 241 243 245 248 250 249 251 255 258 260 263 267 270 273 276 279 280 281 283 286 288 289 293 296 299 300 301 301 302
213 214 213 215 216 218 220 221 223 225 227 228 231 234 236 240 242 243 246 248 247 249 252 255 257 262 267 271 273 275 276 277 280 283 287 289 292 296 298 300 301 303 304 305
208 207 207 208 209 211 214 216 219 223 225 228 229 232 236 239 239 241 243 244 246 248 251 253 259 264 268 271 273 274 275 278 282 286 288 292 295 298 299 301 302 304 305 306
204 205 204 205 208 210 213 215 218 220 222 225 228 229 231 233 235 237 239 243 247 249 251 255 260 264 267 269 270 273 276 280 284 288 292 294 297 299 301 303 304 305 306 306
202 203 202 204 205 206 208 211 216 218 220 223 226 225 226 229 232 235 241 244 245 246 249 255 261 264 266 268 271 274 279 284 288 292 295 297 299 301 304 305 306 306 307 307
199 200 200 199 200 204 207 210 212 213 215 219 221 223 226 228 231 235 237 238 240 245 251 256 259 263 268 271 274 279 284 289 292 295 297 299 301 302 303 304 305 305 306 307
Height
5866 5868 5871 5875 5879 5881 5885 5888 5892 5894 5896 5897 5897 5898 5898 5898 5899 5899 5899 5898 5898 5897 5896 5894 5893 5892 5890 5889 5887 5886 5885 5883 5882 5881 5880 5880 5879 5877 5876 5875 5874 5873 5872 5871
5859 5862 5865 5868 5872 5875 5879 5882 5885 5888 5891 5892 5892 5893 5894 5895 5895 5895 5895 5895 5894 5893 5893 5892 5890 5889 5887 5886 5884 5883 5882 5881 5879 5878 5877 5876 5875 5874 5873 5872 5871 5869 5868 5867
5853 5856 5859 5862 5866 5869 5873 5876 5880 5883 5886 5886 5888 5889 5890 5890 5891 5891 5891 5891 5891 5890 5889 5888 5887 5886 5884 5882 5881 5880 5879 5877 5876 5875 5874 5873 5872 5871 5869 5868 5867 5865 5864 5862
5847 5850 5853 5859 5860 5864 5867 5870 5873 5876 5879 5881 5882 5884 5885 5886 5886 5887 5887 5887 5887 5886 5885 5884 5884 5882 5881 5879 5877 5876 5875 5874 5872 5871 5870 5869 5868 5866 5865 5864 5862 5861 5859 5857
5840 5844 5847 5851 5854 5858 5861 5864 5867 5870 5873 5875 5877 5878 5880 5880 5881 5882 5882 5882 5882 5882 5881 5880 5879 5878 5877 5875 5873 5872 5870 5869 5868 5866 5865 5864 5863 5861 5860 5859 5857 5856 5854 5852
5833 5838 5842 5845 5849 5852 5856 5858 5861 5863 5866 5869 5871 5873 5874 5875 5876 5876 5877 5877 5877 5877 5876 5876 5875 5873 5872 5871 5869 5867 5865 5864 5863 5861 5860 5859 5857 5856 5855 5853 5852 5850 5848 5847
5826 5831 5835 5837 5842 5846 5851 5853 5855 5857 5860 5862 5864 5867 5868 5869 5870 5871 5871 5872 5872 5872 5871 5871 5870 5869 5867 5866 5864 5862 5860 5859 5857 5856 5855 5853 5852 5851 5849 5848 5846 5844 5842 5840
5818 5824 5829 5830 5835 5840 5842 5845 5848 5850 5853 5855 5857 5859 5861 5863 5864 5865 5865 5866 5866 5866 5866 5865 5864 5863 5862 5860 5859 5857 5855 5853 5852 5851 5849 5848 5846 5845 5844 5842 5840 5838 5836 5834
5811 5816 5818 5823 5827 5831 5835 5838 5841 5843 5846 5849 5851 5853 5854 5856 5857 5859 5859 5860 5860 5860 5860 5859 5858 5857 5856 5854 5853 5851 5849 5848 5846 5845 5843 5842 5841 5839 5838 5836 5834 5832 5830 5828
5802 5807 5811 5815 5819 5823 5827 5830 5833 5836 5839 5841 5844 5846 5848 5849 5851 5852 5853 5853 5854 5854 5854 5853 5852 5851 5850 5848 5847 5845 5843 5842 5840 5839 5837 5836 5834 5833 5831 5829 5827 5825 5823 5821
5793 5798 5803 5806 5811 5815 5819 5822 5826 5828 5831 5833 5836 5838 5840 5842 5844 5845 5846 5846 5847 5847 5847 5846 5845 5844 5843 5841 5840 5839 5837 5836 5834 5833 5831 5830 5828 5826 5824 5822 5820 5819 5816 5814
5784 5789 5794 5798 5803 5807 5810 5814 5817 5820 5823 5825 5828 5830 5832 5834 5836 5837 5838 5839 5839 5839 5839 5839 5838 5837 5836 5835 5834 5832 5831 5830 5828 5827 5825 5824 5822 5820 5817 5815 5814 5812 5810 5807
5775 5780 5785 5790 5794 5798 5802 5805 5809 5812 5815 5817 5820 5822 5824 5826 5828 5829 5830 5831 5832 5832 5832 5831 5831 5830 5829 5828 5827 5826 5825 5823 5822 5820 5819 5817 5815 5813 5811 5809 5807 5805 5803 5800
5766 5771 5776 5781 5785 5789 5793 5797 5800 5803 5806 5809 5812 5814 5816 5818 5820 5821 5822 5823 5824 5824 5825 5824 5824 5823 5822 5821 5820 5819 5818 5816 5815 5813 5812 5810 5808 5807 5805 5803 5801 5798 5796 5793
5758 5763 5768 5772 5776 5781 5784 5788 5792 5795 5798 5801 5803 5806 5808 5810 5811 5813 5814 5815 5816 5817 5817 5817 5816 5815 5815 5814 5813 5812 5811 5809 5808 5807 5805 5804 5802 5800 5798 5796 5794 5792 5789 5787
5749 5754 5759 5763 5768 5772 5775 5779 5783 5786 5789 5792 5795 5797 5799 5801 5803 5805 5806 5807 5808 5808 5809 5809 5809 5808 5808 5807 5807 5805 5804 5803 5801 5800 5799 5797 5795 5793 5791 5789 5787 5785 5782 5780
5741 5746 5750 5755 5759 5763 5767 5771 5774 5778 5781 5784 5787 5789 5791 5793 5795 5796 5797 5799 5800 5800 5801 5801 5801 5801 5801 5800 5800 5799 5798 5796 5795 5794 5792 5790 5789 5787 5784 5782 5780 5778 5776 5773
5733 5737 5742 5746 5751 5755 5759 5762 5766 5769 5773 5776 5778 5781 5783 5785 5787 5788 5790 5791 5792 5793 5793 5794 5794 5794 5794 5793 5793 5792 5791 5790 5788 5787 5785 5784 5782 5780 5778 5776 5774 5772 5769 5766
5725 5729 5734 5738 5742 5747 5751 5755 5758 5762 5765 5768 5771 5773 5775 5777 5779 5781 5782 5783 5784 5785 5786 5786 5787 5787 5787 5787 5786 5786 5785 5783 5782 5781 5779 5777 5776 5774 5772 5770 5768 5765 5763 5760
5718 5722 5726 5731 5735 5739 5743 5747 5750 5754 5757 5760 5763 5765 5767 5769 5772 5773 5775 5776 5777 5778 5779 5779 5779 5780 5780 5780 5779 5779 5778 5777 5775 5774 5773 5771 5770 5768 5766 5764 5761 5759 5756 5753
5711 5715 5720 5724 5728 5732 5736 5740 5743 5746 5749 5752 5755 5758 5760 5762 5764 5766 5767 5769 5770 5771 5771 5772 5773 5773 5773 5773 5773 5772 5771 5770 5769 5768 5767 5765 5764 5762 5760 5757 5755 5752 5750 5747
5705 5709 5713 5717 5721 5725 5729 5733 5736 5739 5742 5745 5748 5751 5753 5756 5757 5759 5761 5762 5763 5764 5765 5765 5766 5766 5766 5766 5766 5766 5765 5764 5763 5762 5761 5759 5757 5755 5753 5751 5748 5746 5743 5740
5700 5704 5708 5712 5716 5719 5723 5727 5730 5733 5736 5739 5742 5745 5747 5749 5751 5753 5754 5756 5756 5757 5758 5759 5760 5760 5761 5760 5760 5759 5759 5758 5757 5756 5755 5753 5751 5749 5747 5745 5742 5739 5737 5734
5697 5700 5704 5707 5711 5715 5718 5722 5725 5728 5731 5734 5737 5739 5742 5743 5745 5747 5748 5750 5751 5752 5753 5754 5755 5755 5755 5755 5754 5754 5753 5752 5751 5750 5749 5747 5745 5743 5741 5738 5736 5733 5730 5728
5694 5697 5701 5704 5708 5711 5714 5718 5721 5724 5727 5729 5731 5734 5736 5738 5740 5742 5743 5744 5746 5747 5748 5749 5749 5750 5750 5749 5749 5748 5748 5747 5746 5744 5742 5741 5738 5736 5734 5732 5729 5727 5724 5721
5692 5695 5698 5702 5705 5708 5711 5714 5717 5720 5722 5725 5727 5729 5731 5733 5735 5736 5738 5739 5741 5742 5743 5744 5744 5745 5744 5744 5744 5743 5742 5741 5740 5738 5736 5734 5732 5730 5728 5725 5723 5720 5717 5714
5690 5694 5697 5700 5703 5706 5709 5711 5714 5717 5719 5721 5724 5726 5727 5729 5731 5732 5734 5735 5737 5738 5739 5740 5740 5740 5740 5739 5739 5738 5736 5735 5734 5732 5730 5728 5726 5724 5722 5719 5717 5714 5711 5708